This is the latest recevied weather packets stored in our database for station/object K4CRS-13. If no packets are shown the sender has not sent any weather packets the latest 10 day(s).
| Time | Temp. | Humidity | Pressure | Rain* | Wind** | Luminosity | Snow |
|---|---|---|---|---|---|---|---|
| 1787487252 | 20.56° C | 99% | 1052.1 hPa | 0 mm | - | 54 W/m² | - |
| 1787486948 | 20° C | 99% | 1052.1 hPa | 0 mm | - | 50 W/m² | - |
| 1787486642 | 20° C | 99% | 1052 hPa | 0 mm | - | 45 W/m² | - |
| 1787486341 | 20° C | 99% | 1052.1 hPa | 0 mm | - | 37 W/m² | - |
| 1787486037 | 19.44° C | 99% | 1052.1 hPa | 0 mm | - | 26 W/m² | - |
| 1787485732 | 19.44° C | 99% | 1052.1 hPa | 0 mm | - | 22 W/m² | - |
| 1787485428 | 19.44° C | 99% | 1051.7 hPa | 0 mm | - | 18 W/m² | - |
| 1787485123 | 19.44° C | 99% | 1051.8 hPa | 0 mm | - | 15 W/m² | - |
| 1787484819 | 19.44° C | 99% | 1051.9 hPa | 0 mm | - | 11 W/m² | - |
| 1787484516 | 19.44° C | 99% | 1051.9 hPa | 0 mm | - | 8 W/m² | - |
| 1787484211 | 19.44° C | 99% | 1051.7 hPa | 0 mm | - | 5 W/m² | - |
| 1787483906 | 19.44° C | 99% | 1051.8 hPa | 0 mm | - | 3 W/m² | - |
| 1787483604 | 19.44° C | 99% | 1051.6 hPa | 0 mm | - | 1 W/m² | - |
| 1787483300 | 19.44° C | 99% | 1051.5 hPa | 0 mm | - | 1 W/m² | - |
| 1787482995 | 19.44° C | 99% | 1051.6 hPa | 0 mm | - | 0 W/m² | - |
| 1787482691 | 19.44° C | 99% | 1051.4 hPa | 0 mm | - | 0 W/m² | - |
| 1787482387 | 19.44° C | 99% | 1051.4 hPa | 0 mm | - | 0 W/m² | - |
| 1787482083 | 19.44° C | 99% | 1051.4 hPa | 0 mm | - | 0 W/m² | - |
| 1787481782 | 19.44° C | 99% | 1051.5 hPa | 0 mm | - | 0 W/m² | - |
| 1787481477 | 19.44° C | 99% | 1051.5 hPa | 0 mm | - | 0 W/m² | - |
| 1787481175 | 19.44° C | 99% | 1051.6 hPa | 1.78 mm | - | 0 W/m² | - |
| 1787480871 | 19.44° C | 99% | 1051.5 hPa | 1.78 mm | - | 0 W/m² | - |
| 1787480568 | 19.44° C | 99% | 1051.6 hPa | 0 mm | - | 0 W/m² | - |
| 1787480264 | 19.44° C | 99% | 1051.3 hPa | 0 mm | - | 0 W/m² | - |
| 1787479959 | 19.44° C | 99% | 1051.5 hPa | 0 mm | - | 0 W/m² | - |
* Rain latest hour (hover to see other rain measurements)
** Current wind speed in m/s (hover to see current wind gust speed)